Madison, WI

11:44 PM CDT on April 23, 2017 (GMT -0500)
Dane County Regional-Truax

Weather History for KMSN - January, 2014

Change the Weather History Date:

Saturday, January 4, 2014

  Actual Average Record
Temperature  
Mean Temperature 24 °F 19 °F  
Max Temperature 33 °F 26 °F 53 °F (1880)
Min Temperature 15 °F 12 °F -26 °F (1884)
Degree Days  
Heating Degree Days 41 46  
Month to date heating degree days 228 184  
Since 1 July heating degree days 3213 3063  
Cooling Degree Days 0 0  
Month to date cooling degree days 0 0  
Year to date cooling degree days 0 0  
Moisture  
Dew Point 16 °F    
Average Humidity 67    
Maximum Humidity 78    
Minimum Humidity 56    
Precipitation  
Precipitation T in 0.04 in 1.22 in (1874)
Month to date precipitation T 0.16  
Year to date precipitation T 0.16  
Snow  
Snow T in 0.40 in 11.70 in (1910)
Month to date snowfall 0.3 1.6  
Since 1 July snowfall 25.9 19.2  
Snow Depth 6.00 in    
Sea Level Pressure  
Sea Level Pressure 29.87 in    
Wind  
Wind Speed 11 mph (WNW)    
Max Wind Speed 22 mph    
Max Gust Speed 30 mph    
Visibility 10 miles    
Events Snow    
T = Trace of Precipitation, MM = Missing Value Source: NWS Daily Summary

Daily Weather History Graph

Daily Weather History Graph

Search for Another Location

Airport or City:

Trip Planner

Search our weather history database for the weather conditions in past years. The results will help you decide how hot, cold, wet, or windy it might be!

Date:

Astronomy

Jan. 04, 2014 Rise Set
Actual Time 7:29 AM CST 4:35 PM CST
Civil Twilight 6:57 AM CST 5:07 PM CST
Nautical Twilight 6:21 AM CST 5:43 PM CST
Astronomical Twilight 5:46 AM CST 6:18 PM CST
Moon 9:28 AM CST (1/4) 9:02 PM CST (1/4)
Length of Visible Light 10h 10m
Length of Day
9h 06m
Waxing Crescent, 15% of the Moon is Illuminated
Jan 4
Waxing Crescent
Jan 7
First Quarter
Jan 15
Full
Jan 23
Last Quarter
Jan 30
New

Hourly Weather History & Observations

Time (CST) Temp. Windchill Dew Point Humidity Pressure Visibility Wind Dir Wind Speed Gust Speed Precip Events Conditions
12:53 AM 19.9 °F 6.7 °F 12.0 °F 71% 29.76 in 10.0 mi SSW 13.8 mph 25.3 mph N/A   Clear
1:53 AM 19.9 °F 4.8 °F 12.9 °F 74% 29.74 in 10.0 mi South 18.4 mph 27.6 mph N/A   Clear
2:53 AM 19.9 °F 4.8 °F 12.9 °F 74% 29.73 in 10.0 mi SSW 18.4 mph 24.2 mph N/A   Clear
3:53 AM 21.9 °F 8.2 °F 14.0 °F 72% 29.71 in 10.0 mi South 16.1 mph 26.5 mph N/A   Scattered Clouds
4:53 AM 23.0 °F 10.1 °F 14.0 °F 68% 29.71 in 10.0 mi SSW 15.0 mph 23.0 mph N/A   Mostly Cloudy
5:53 AM 24.1 °F 13.1 °F 15.1 °F 69% 29.70 in 10.0 mi SSW 11.5 mph 17.3 mph N/A   Overcast
6:53 AM 26.1 °F 15.6 °F 16.0 °F 66% 29.72 in 10.0 mi SSW 11.5 mph 20.7 mph N/A   Overcast
7:21 AM 26.1 °F 15.0 °F 17.1 °F 69% 29.69 in 10.0 mi SW 12.7 mph 18.4 mph N/A   Overcast
7:53 AM 27.0 °F 18.0 °F 17.1 °F 66% 29.76 in 10.0 mi SW 9.2 mph 21.9 mph N/A   Overcast
8:53 AM 28.0 °F 18.1 °F 19.0 °F 69% 29.76 in 10.0 mi SSW 11.5 mph - N/A   Overcast
9:53 AM 28.9 °F 21.1 °F 19.9 °F 69% 29.80 in 10.0 mi SW 8.1 mph - N/A   Overcast
10:53 AM 30.9 °F 24.3 °F 21.0 °F 67% 29.80 in 10.0 mi Variable 6.9 mph - N/A   Overcast
11:53 AM 30.9 °F 25.2 °F 23.0 °F 72% 29.82 in 10.0 mi Variable 5.8 mph - N/A   Overcast
12:53 PM 32.0 °F - 24.1 °F 73% 29.80 in 9.0 mi Calm Calm - 0.00 in Snow Light Snow
1:53 PM 33.1 °F 28.7 °F 25.0 °F 72% 29.82 in 9.0 mi WNW 4.6 mph - 0.00 in   Overcast
2:53 PM 33.1 °F 25.5 °F 26.1 °F 75% 29.86 in 10.0 mi NW 9.2 mph - N/A   Overcast
3:53 PM 32.0 °F 24.2 °F 26.1 °F 79% 29.91 in 8.0 mi North 9.2 mph - N/A   Overcast
4:22 PM 30.9 °F 23.5 °F 23.0 °F 72% 29.88 in 8.0 mi North 8.1 mph - N/A   Overcast
4:53 PM 28.9 °F 18.6 °F 21.0 °F 72% 29.94 in 7.0 mi NNW 12.7 mph - N/A   Overcast
5:27 PM 28.0 °F 20.0 °F 19.0 °F 69% 29.93 in 10.0 mi NNW 8.1 mph - N/A   Overcast
5:53 PM 27.0 °F 17.3 °F 18.0 °F 69% 29.99 in 10.0 mi North 10.4 mph - N/A   Overcast
6:53 PM 25.0 °F 14.2 °F 16.0 °F 69% 30.02 in 10.0 mi North 11.5 mph - N/A   Overcast
7:53 PM 21.0 °F 9.9 °F 10.9 °F 65% 30.06 in 10.0 mi North 10.4 mph 20.7 mph N/A   Overcast
8:53 PM 19.0 °F 6.8 °F 7.0 °F 59% 30.07 in 10.0 mi North 11.5 mph - N/A   Overcast
9:53 PM 17.1 °F 4.3 °F 6.1 °F 62% 30.09 in 10.0 mi North 11.5 mph - N/A   Overcast
10:53 PM 17.1 °F 3.6 °F 6.1 °F 62% 30.11 in 10.0 mi NNW 12.7 mph - N/A   Overcast
11:53 PM 15.1 °F 1.8 °F 5.0 °F 64% 30.12 in 10.0 mi NNW 11.5 mph - N/A   Clear